| time (UTC) | temp F | wind direction | speed knots | gust knots | rain 1hr in | rain 24hr in | rain mn in | humidity % | barometer mb |
| 20260506231551 | 0 | 113 | 7.0 | 13.9 | 0.00 | 0.00 | 0.00 | 1008.5 | |
| 20260506230046 | 0 | 253 | 7.0 | 13.9 | 0.00 | 0.00 | 0.00 | 1008.5 | |
| 20260506224543 | 0 | 141 | 6.1 | 13.0 | 0.00 | 0.00 | 0.00 | 1008.5 | |
| 20260506223039 | 0 | 134 | 1.7 | 7.0 | 0.00 | 0.00 | 0.00 | 1008.5 | |
| 20260506221534 | 0 | 246 | 0.9 | 7.8 | 0.00 | 0.00 | 0.00 | 1008.4 | |
| 20260506220035 | 0 | 159 | 1.7 | 7.8 | 0.00 | 0.00 | 0.00 | 1008.4 | |
| 20260506214524 | 0 | 246 | 2.6 | 7.8 | 0.00 | 0.00 | 0.00 | 1008.4 | |
| 20260506213020 | 0 | 133 | 0.0 | 5.2 | 0.00 | 0.00 | 0.00 | 1008.5 | |
| 20260506211515 | 0 | 237 | 2.6 | 8.7 | 0.00 | 0.00 | 0.00 | 1008.6 | |
| 20260506210010 | 0 | 207 | 0.9 | 6.1 | 0.00 | 0.00 | 0.00 | 1008.6 | |
| 20260506204507 | 0 | 206 | 4.3 | 9.6 | 0.00 | 0.00 | 0.00 | 1008.7 | |
| 20260506203002 | 0 | 166 | 1.7 | 7.0 | 0.00 | 0.00 | 0.00 | 1009.0 | |
| 20260506201627 | 0 | 205 | 1.7 | 5.2 | 0.00 | 0.00 | 0.00 | 1009.0 | |
| 20260506200053 | 0 | 292 | 3.5 | 9.6 | 0.00 | 0.00 | 0.00 | 1009.3 | |
| 20260506194552 | 0 | 203 | 1.7 | 6.1 | 0.00 | 0.00 | 0.00 | 1009.6 | |
| 20260506193051 | 0 | 20 | 1.7 | 6.1 | 0.00 | 0.00 | 0.00 | 1010.0 | |
| 20260506191542 | 0 | 153 | 1.7 | 7.0 | 0.00 | 0.00 | 0.00 | 1010.1 | |
| 20260506190036 | 0 | 155 | 2.6 | 7.8 | 0.00 | 0.00 | 0.00 | 1010.1 | |
| 20260506184536 | 0 | 184 | 2.6 | 5.2 | 0.00 | 0.00 | 0.00 | 1010.3 | |
| 20260506183027 | 0 | 262 | 0.9 | 6.1 | 0.00 | 0.00 | 0.00 | 1010.6 | |
| 20260506181522 | 0 | 313 | 1.7 | 7.0 | 0.00 | 0.00 | 0.00 | 1010.7 | |
| 20260506180019 | 0 | 263 | 3.5 | 8.7 | 0.00 | 0.00 | 0.00 | 1010.9 | |
| 20260506174516 | 0 | 319 | 1.7 | 7.0 | 0.00 | 0.00 | 0.00 | 1010.9 | |
| 20260506173010 | 0 | 149 | 2.6 | 7.8 | 0.00 | 0.00 | 0.00 | 1011.1 | |
| 20260506171506 | 0 | 165 | 1.7 | 10.4 | 0.00 | 0.00 | 0.00 | 1011.6 | |
| 20260506170001 | 0 | 304 | 1.7 | 7.0 | 0.00 | 0.00 | 0.00 | 1011.7 | |
| 20260506164556 | 0 | 219 | 3.5 | 11.3 | 0.00 | 0.00 | 0.00 | 1011.7 | |
| 20260506163103 | 0 | 120 | 0.9 | 8.7 | 0.00 | 0.00 | 0.00 | 1012.0 | |
| 20260506161548 | 0 | 236 | 3.5 | 8.7 | 0.00 | 0.00 | 0.00 | 1012.2 | |
| 20260506160046 | 0 | 240 | 2.6 | 7.0 | 0.00 | 0.00 | 0.00 | 1012.2 | |
| 20260506154545 | 0 | 209 | 3.5 | 7.0 | 0.00 | 0.00 | 0.00 | 1012.1 | |
| 20260506153039 | 0 | 223 | 1.7 | 9.6 | 0.00 | 0.00 | 0.00 | 1012.2 | |
| 20260506151530 | 0 | 163 | 0.9 | 7.0 | 0.00 | 0.00 | 0.00 | 1012.1 | |
| 20260506150026 | 0 | 269 | 4.3 | 10.4 | 0.00 | 0.00 | 0.00 | 1012.1 | |
| 20260506144521 | 0 | 143 | 1.7 | 7.8 | 0.00 | 0.00 | 0.00 | 1011.8 | |
| 20260506143017 | 0 | 191 | 4.3 | 9.6 | 0.00 | 0.00 | 0.00 | 1011.7 | |
| 20260506141512 | 0 | 174 | 4.3 | 8.7 | 0.00 | 0.00 | 0.00 | 1011.7 | |
| 20260506140008 | 0 | 209 | 1.7 | 9.6 | 0.00 | 0.00 | 0.00 | 1011.8 | |
| 20260506134504 | 0 | 184 | 4.3 | 9.6 | 0.00 | 0.00 | 0.00 | 1011.8 | |
| 20260506133104 | 0 | 153 | 3.5 | 9.6 | 0.00 | 0.00 | 0.00 | 1012.0 | |
| 20260506131557 | 0 | 104 | 1.7 | 7.0 | 0.00 | 0.00 | 0.00 | 1011.8 | |
| 20260506130053 | 0 | 200 | 2.6 | 5.2 | 0.00 | 0.00 | 0.00 | 1011.7 | |
| 20260506124546 | 0 | 256 | 2.6 | 6.1 | 0.00 | 0.00 | 0.00 | 1011.5 | |
| 20260506123042 | 0 | 205 | 0.9 | 3.5 | 0.00 | 0.00 | 0.00 | 1011.3 | |
| 20260506121537 | 0 | 172 | 0.9 | 4.3 | 0.00 | 0.00 | 0.00 | 1011.1 | |
| 20260506120035 | 0 | 200 | 0.0 | 0.9 | 0.00 | 0.00 | 0.00 | 1011.0 | |
| 20260506114529 | 0 | 210 | 0.0 | 0.9 | 0.00 | 0.00 | 0.00 | 1011.0 | |
| 20260506113025 | 0 | 0.0 | 0.0 | 0.00 | 0.00 | 0.00 | 1011.0 | ||
| 20260506111526 | 0 | 0.0 | 0.0 | 0.00 | 0.00 | 0.00 | 1010.9 | ||
| 20260506110016 | 0 | 0.0 | 0.0 | 0.00 | 0.00 | 0.00 | 1010.6 | ||
| 20260506104511 | 0 | 0.0 | 0.0 | 0.00 | 0.00 | 0.00 | 1010.5 | ||
| 20260506103008 | 0 | 0.0 | 0.0 | 0.00 | 0.00 | 0.00 | 1010.3 | ||
| 20260506101502 | 0 | 0.0 | 0.0 | 0.00 | 0.00 | 0.00 | 1010.1 | ||
| 20260506100059 | 0 | 0.0 | 0.0 | 0.00 | 0.00 | 0.00 | 1010.5 | ||
| 20260506094555 | 0 | 0.0 | 0.0 | 0.00 | 0.00 | 0.00 | 1010.6 | ||
| 20260506093107 | 0 | 0.0 | 0.0 | 0.00 | 0.00 | 0.00 | 1010.4 | ||
| 20260506091547 | 0 | 0.0 | 0.0 | 0.00 | 0.00 | 0.00 | 1010.1 | ||
| 20260506090044 | 0 | 0.0 | 0.0 | 0.00 | 0.00 | 0.00 | 1010.1 | ||
| 20260506084537 | 0 | 221 | 0.0 | 0.0 | 0.00 | 0.00 | 0.00 | 1010.2 | |
| 20260506083037 | 0 | 221 | 0.0 | 0.0 | 0.00 | 0.00 | 0.00 | 1010.1 | |
| 20260506081528 | 0 | 221 | 0.0 | 0.0 | 0.00 | 0.00 | 0.00 | 1010.1 | |
| 20260506073015 | 0 | 159 | 0.0 | 2.6 | 0.00 | 0.00 | 0.00 | 1009.8 | |
| 20260506071509 | 0 | 169 | 0.0 | 0.0 | 0.00 | 0.00 | 0.00 | 1010.1 | |
| 20260506061601 | 0 | 230 | 0.0 | 0.0 | 0.00 | 0.00 | 0.00 | 1010.6 | |
| 20260506044527 | 0 | 223 | 0.0 | 0.0 | 0.00 | 0.00 | 0.00 | 1011.3 | |
| 20260506043021 | 0 | 223 | 0.0 | 0.0 | 0.00 | 0.00 | 0.00 | 1011.3 | |
| 20260506041517 | 0 | 225 | 0.0 | 0.0 | 0.00 | 0.00 | 0.00 | 1011.3 | |
| 20260506040017 | 0 | 225 | 0.0 | 0.0 | 0.00 | 0.00 | 0.00 | 1011.5 | |
| 20260506034509 | 0 | 218 | 0.0 | 0.0 | 0.00 | 0.00 | 0.00 | 1011.4 | |
| 20260506033005 | 0 | 163 | 0.0 | 0.0 | 0.00 | 0.00 | 0.00 | 1011.3 | |
| 20260506031604 | 0 | 163 | 0.0 | 0.0 | 0.00 | 0.00 | 0.00 | 1011.2 | |
| 20260506030055 | 0 | 199 | 0.0 | 0.9 | 0.00 | 0.00 | 0.00 | 1011.1 | |
| 20260506024558 | 0 | 211 | 0.0 | 0.9 | 0.00 | 0.00 | 0.00 | 1011.1 | |
| 20260506023054 | 0 | 228 | 0.0 | 1.7 | 0.00 | 0.00 | 0.00 | 1011.1 | |
| 20260506021542 | 0 | 157 | 0.9 | 4.3 | 0.00 | 0.00 | 0.00 | 1010.7 | |
| 20260506020108 | 0 | 207 | 0.9 | 4.3 | 0.00 | 0.00 | 0.00 | 1010.6 | |
| 20260506014533 | 0 | 136 | 4.3 | 9.6 | 0.00 | 0.00 | 0.00 | 1010.5 | |
| 20260506013031 | 0 | 153 | 4.3 | 8.7 | 0.00 | 0.00 | 0.00 | 1010.5 | |
| 20260506011527 | 0 | 152 | 6.1 | 9.6 | 0.00 | 0.00 | 0.00 | 1010.4 | |
| 20260506010024 | 0 | 128 | 3.5 | 8.7 | 0.00 | 0.00 | 0.00 | 1010.5 | |
| 20260506004523 | 0 | 136 | 6.1 | 11.3 | 0.00 | 0.00 | 0.00 | 1010.3 | |
| 20260506003016 | 0 | 142 | 5.2 | 12.2 | 0.00 | 0.00 | 0.00 | 1010.2 | |
| 20260506001507 | 0 | 130 | 7.8 | 13.0 | 0.00 | 0.00 | 0.00 | 1010.1 | |
| 20260506000003 | 0 | 117 | 9.6 | 13.0 | 0.00 | 0.00 | 0.00 | 1010.1 | |
| 20260505234616 | 0 | 137 | 7.8 | 13.0 | 0.00 | 0.00 | 0.00 | 1009.9 | |
| 20260505233058 | 0 | 119 | 9.6 | 13.0 | 0.00 | 0.00 | 0.00 | 1009.9 |